Erie, PA

6:15 PM EDT on October 22, 2019 (GMT -0400)
Erie International

Weather History for KERI - August, 2019

Change the Weather History Date:

Monday, August 19, 2019

  Actual Average Record
Temperature  
Mean Temperature 74 °F 70 °F  
Max Temperature 81 °F 79 °F 93 °F (1936)
Min Temperature 66 °F 62 °F 48 °F (1958)
Degree Days  
Heating Degree Days 0 0  
Month to date heating degree days 0 0  
Since 1 June heating degree days 38 68  
Since 1 July heating degree days 0 7  
Cooling Degree Days 8 6  
Month to date cooling degree days 162 122  
Year to date cooling degree days 627 497  
Since 1 June cooling degree days 594 458  
Growing Degree Days 24 (Base 50)    
Moisture  
Dew Point 65 °F    
Average Humidity 77    
Maximum Humidity 93    
Minimum Humidity 58    
Precipitation  
Precipitation 0.34 in 0.11 in 1.52 in (1978)
Month to date precipitation 2.56 2.16  
Year to date precipitation 25.06 24.52  
Snow  
Snow 0.00 in 0.00 in - ()
Month to date snowfall 0.0 0.0  
Since 1 June snowfall 0.0 0.0  
Since 1 July snowfall 0.0 0.0  
Snow Depth 0.00 in    
Sea Level Pressure  
Sea Level Pressure 30.01 in    
Wind  
Wind Speed 8 mph ()    
Max Wind Speed 22 mph    
Max Gust Speed 33 mph    
Visibility 8.9 miles    
Events Rain , Thunderstorm    
T = Trace of Precipitation, MM = Missing Value Source: Averaged Metar Reports

Daily Weather History Graph

Daily Weather History Graph

Search for Another Location

Airport or City:

Astronomy

Aug. 19, 2019 Rise Set
Actual Time 6:32 AM EDT 8:15 PM EDT
Civil Twilight 6:02 AM EDT 8:45 PM EDT
Nautical Twilight 5:26 AM EDT 9:21 PM EDT
Astronomical Twilight 4:47 AM EDT 9:59 PM EDT
Moon 10:32 PM EDT (8/19) 10:15 AM EDT (8/19)
Length of Visible Light 14h 42m
Length of Day
13h 43m
Waning Gibbous, 85% of the Moon is Illuminated
Aug 19
Waning Gibbous
Aug 23
Last Quarter
Aug 30
New
Sep 5
First Quarter
Sep 14
Full

Hourly Weather History & Observations

Time (EDT) Temp. Heat Index Dew Point Humidity Pressure Visibility Wind Dir Wind Speed Gust Speed Precip Events Conditions
12:40 AM 75.9 °F - 66.0 °F 71% 29.87 in 10.0 mi South 17.3 mph - N/A Thunderstorm Clear
12:51 AM 75.0 °F - 66.0 °F 73% 29.91 in 10.0 mi WNW 16.1 mph 32.2 mph N/A Thunderstorm Scattered Clouds
12:57 AM 73.0 °F - 66.9 °F 81% 29.93 in 10.0 mi WNW 11.5 mph 32.2 mph N/A Thunderstorm Thunderstorm
1:28 AM 70.0 °F - 66.0 °F 87% 29.97 in 1.8 mi West 10.4 mph - 0.09 in Rain , Thunderstorm Heavy Thunderstorms and Rain
1:36 AM 70.0 °F - 66.0 °F 87% 29.97 in 1.2 mi SW 6.9 mph - 0.24 in Rain , Thunderstorm Thunderstorms and Rain
1:41 AM 70.0 °F - 66.0 °F 87% 29.98 in 2.5 mi SSW 4.6 mph - 0.25 in Rain , Thunderstorm Light Thunderstorms and Rain
1:43 AM 70.0 °F - 66.0 °F 87% 29.98 in 5.0 mi SSW 6.9 mph - 0.25 in Rain , Thunderstorm Light Rain
1:51 AM 70.0 °F - 66.9 °F 90% 29.97 in 5.0 mi SW 4.6 mph - 0.26 in Rain Light Rain
2:13 AM 71.1 °F - 66.9 °F 87% 29.98 in 6.0 mi WSW 10.4 mph 18.4 mph 0.01 in Rain Light Rain
2:19 AM 71.1 °F - 66.9 °F 87% 29.98 in 6.0 mi WSW 12.7 mph 19.6 mph 0.02 in Rain Light Rain
2:26 AM 71.1 °F - 66.0 °F 84% 29.97 in 5.0 mi SW 8.1 mph 19.6 mph 0.04 in Rain Rain
2:51 AM 69.1 °F - 64.9 °F 87% 29.92 in 10.0 mi SSE 11.5 mph - 0.08 in Rain Light Rain
3:51 AM 69.1 °F - 64.9 °F 87% 29.94 in 10.0 mi SSW 6.9 mph - 0.00 in   Overcast
4:51 AM 68.0 °F - 64.0 °F 87% 29.93 in 10.0 mi SSW 4.6 mph - N/A   Clear
5:51 AM 66.9 °F - 64.0 °F 90% 29.95 in 10.0 mi South 3.5 mph - N/A   Clear
6:51 AM 66.9 °F - 63.0 °F 87% 29.98 in 10.0 mi SSW 6.9 mph - N/A   Mostly Cloudy
7:32 AM 68.0 °F - 64.0 °F 87% 30.00 in 10.0 mi South 9.2 mph - N/A   Mostly Cloudy
7:51 AM 69.1 °F - 64.0 °F 84% 30.00 in 10.0 mi SSW 9.2 mph - N/A   Overcast
8:34 AM 70.0 °F - 64.0 °F 81% 30.02 in 10.0 mi SSW 9.2 mph - N/A   Overcast
8:51 AM 71.1 °F - 64.9 °F 81% 30.01 in 10.0 mi South 8.1 mph - N/A   Overcast
9:02 AM 71.1 °F - 64.0 °F 78% 30.03 in 10.0 mi SSW 9.2 mph - N/A   Overcast
9:43 AM 71.1 °F - 64.9 °F 81% 30.04 in 10.0 mi SSW 5.8 mph - N/A   Overcast
9:51 AM 72.0 °F - 64.9 °F 78% 30.03 in 10.0 mi South 8.1 mph - N/A   Overcast
10:19 AM 73.9 °F - 64.9 °F 73% 30.04 in 10.0 mi SSW 9.2 mph - N/A   Overcast
10:51 AM 75.0 °F - 66.0 °F 73% 30.04 in 10.0 mi SW 8.1 mph - N/A   Overcast
11:51 AM 77.0 °F - 66.0 °F 69% 30.05 in 10.0 mi Variable 6.9 mph - N/A   Mostly Cloudy
12:02 PM 77.0 °F - 66.9 °F 71% 30.06 in 10.0 mi West 8.1 mph - N/A   Scattered Clouds
12:14 PM 78.1 °F - 66.9 °F 68% 30.07 in 10.0 mi West 9.2 mph - N/A   Mostly Cloudy
12:34 PM 78.1 °F - 66.9 °F 68% 30.07 in 10.0 mi West 11.5 mph - N/A   Scattered Clouds
12:51 PM 78.1 °F - 68.0 °F 71% 30.06 in 10.0 mi West 9.2 mph - N/A   Scattered Clouds
1:05 PM 79.0 °F - 68.0 °F 69% 30.07 in 10.0 mi WNW 9.2 mph - N/A   Mostly Cloudy
1:24 PM 78.1 °F - 66.0 °F 66% 30.08 in 10.0 mi WNW 10.4 mph - N/A   Scattered Clouds
1:51 PM 78.1 °F - 64.9 °F 64% 30.06 in 10.0 mi West 9.2 mph - N/A   Clear
2:51 PM 79.0 °F - 66.0 °F 64% 30.06 in 10.0 mi WNW 8.1 mph - N/A   Clear
3:51 PM 80.1 °F 81.7 °F 64.0 °F 58% 30.06 in 10.0 mi West 9.2 mph - N/A   Mostly Cloudy
4:51 PM 80.1 °F 81.7 °F 64.0 °F 58% 30.05 in 10.0 mi West 6.9 mph - N/A   Clear
5:51 PM 80.1 °F 81.7 °F 64.0 °F 58% 30.04 in 10.0 mi WNW 6.9 mph - N/A   Clear
6:51 PM 79.0 °F - 64.0 °F 60% 30.04 in 10.0 mi WSW 4.6 mph - N/A   Clear
7:51 PM 78.1 °F - 63.0 °F 60% 30.03 in 10.0 mi Calm Calm - N/A   Clear
8:51 PM 73.9 °F - 64.0 °F 71% 30.04 in 10.0 mi SSW 3.5 mph - N/A   Clear
9:51 PM 71.1 °F - 64.0 °F 78% 30.05 in 10.0 mi South 3.5 mph - N/A   Clear
10:51 PM 69.1 °F - 63.0 °F 81% 30.07 in 10.0 mi Calm Calm - N/A   Clear
11:51 PM 69.1 °F - 63.0 °F 81% 30.08 in 10.0 mi Calm Calm - N/A   Clear